{"data":{"norad_id":42957,"epoch":"2026-09-20T02:06:42.735168Z","epoch_age_seconds":51018,"freshness":"FRESH","line1":"1 42957U 17061C   26263.08799462  .00000144  00000+0  44275-4 0  9990","line2":"2 42957  86.4022 345.5329 0002238  92.8034 267.3417 14.34217972468382","mean_motion":14.34217972,"eccentricity":0.0002238,"inclination_deg":86.4022,"raan_deg":345.5329,"arg_perigee_deg":92.8034,"mean_anomaly_deg":267.3417,"bstar":4.4275e-5,"rev_number":46838,"period_min":100.40314848321,"perigee_km":776.06494712635,"apogee_km":779.26788473532,"semimajor_km":7155.8034159308,"source":"CELESTRAK","updated_at":"2026-09-20T09:00:36.324507Z"}}